Tracking 22780 objects as of 11-Apr-2021
HD Live streaming from Space Station
objects crossing your sky now

METEOR 1-16 DEB

Track METEOR 1-16 DEB now!
10-day predictions


NORAD ID: 42999
Int'l Code: 1974-011C
Perigee: 815.3 km
Apogee: 868.3 km
Inclination: 81.2 °
Period: 101.6 minutes
Semi major axis: 7212 km
RCS: Unknown
Launch date: March 5, 1974
Source: Commonwealth of Independent States (former USSR) (CIS)
Launch site: PLESETSK MISSILE AND SPACE COMPLEX (PKMTR)

Note: This is SATELLITE DEBRIS
aabbcc
Your satellite tracking list
Your tracking list is empty




NASA's NSSDC Master Catalog

Two Line Element Set (TLE):
1 42999U 74011C   21099.67822280  .00001341  00000-0  65390-3 0  9997
2 42999  81.2288  84.9493 0036766  32.2745 328.0668 14.17252873244577
Source of the keplerian elements: AFSPC